Location: Auckland
(36.8670°S, 174.7670°E)
Time: 14:53:07
(UTC+13:00)

ERBS - Pass Details

Date: 24 January 2019
Orbit: 418 x 432 km, 57.0° (Epoch: 17 February)

Event Time Altitude Azimuth Distance (km) Brightness Sun altitude
Rises 22:31:27 0° 209° (SSW) 2,441 7.5 -19.5°
Reaches altitude 10° 22:33:59 10° 191° (S) 1,566 5.9 -19.8°
Maximum altitude 22:36:38 20° 142° (SE) 1,090 4.4 -20.2°
Enters shadow 22:37:04 19° 131° (SE) 1,104 4.3 -20.2°
